Location: Unspecified
(50.7693°N, 0.0000°E)
Time: 02:58:16
(UTC+00:00)

Vanguard 2 - Pass Details

Date: 22 June 2019
Orbit: 554 x 2938 km, 32.9° (Epoch: 13 October)

Event Time Altitude Azimuth Distance (km) Brightness Sun altitude
Rises 09:57:33 0° 234° (SW) 3,543 10.8 53.6°
Reaches altitude 10° 10:00:21 10° 219° (SW) 2,881 10.6 54.0°
Maximum altitude 10:05:43 23° 170° (S) 2,599 11.1 54.6°
Drops below altitude 10° 10:13:15 10° 125° (SE) 4,198 12.0 55.5°
Sets 10:18:26 0° 114° (ESE) 5,659 12.4 56.1°
